Rome, NY

5:09 PM EST on November 21, 2019 (GMT -0500)
Griffiss

Weather History for KRME - October, 2019

Change the Weather History Date:

Monday, October 21, 2019

  Actual Average Record
Temperature  
Mean Temperature 50 °F -  
Max Temperature 64 °F 56 °F 80 °F (1979)
Min Temperature 37 °F 37 °F 26 °F (1983)
Degree Days  
Heating Degree Days 15    
Moisture  
Dew Point 42 °F    
Average Humidity 93    
Maximum Humidity 100    
Minimum Humidity 54    
Precipitation  
Precipitation 0.00 in - - ()
Sea Level Pressure  
Sea Level Pressure 30.10 in    
Wind  
Wind Speed 6 mph (ESE)    
Max Wind Speed 17 mph    
Max Gust Speed 23 mph    
Visibility 6 miles    
Events Fog    
Averages and records for this station are not official NWS values.
T = Trace of Precipitation, MM = Missing Value Source: NWS Daily Summary

Daily Weather History Graph

Daily Weather History Graph

Search for Another Location

Airport or City:

Astronomy

Oct. 21, 2019 Rise Set
Actual Time 7:22 AM EDT 6:09 PM EDT
Civil Twilight 6:53 AM EDT 6:38 PM EDT
Nautical Twilight 6:20 AM EDT 7:11 PM EDT
Astronomical Twilight 5:47 AM EDT 7:44 PM EDT
Moon No Moon Rise 2:44 PM EDT
Length of Visible Light 11h 44m
Length of Day
10h 47m
Waning Gibbous, 48% of the Moon is Illuminated
Oct 21
Waning Gibbous
Oct 27
New
Nov 4
First Quarter
Nov 12
Full
Nov 19
Last Quarter

Hourly Weather History & Observations

Time (EDT) Temp. Windchill Dew Point Humidity Pressure Visibility Wind Dir Wind Speed Gust Speed Precip Events Conditions
12:53 AM 43.0 °F 41.3 °F 43.0 °F 100% 30.07 in 5.0 mi SE 3.5 mph - N/A   Clear
1:02 AM 42.1 °F 40.2 °F 42.1 °F 100% 30.06 in 1.5 mi ESE 3.5 mph - N/A   Clear
1:15 AM 41.0 °F 38.0 °F 41.0 °F 100% 30.06 in 3.0 mi ESE 4.6 mph - N/A   Clear
1:53 AM 41.0 °F 38.0 °F 41.0 °F 100% 30.07 in 5.0 mi ESE 4.6 mph - N/A   Clear
2:45 AM 41.0 °F 37.1 °F 41.0 °F 100% 30.07 in 6.0 mi ESE 5.8 mph - N/A   Scattered Clouds
2:53 AM 41.0 °F 36.4 °F 41.0 °F 100% 30.08 in 3.0 mi ESE 6.9 mph - N/A   Mostly Cloudy
3:00 AM 41.0 °F 35.8 °F 41.0 °F 100% 30.07 in 2.0 mi ESE 8.1 mph - N/A   Mostly Cloudy
3:11 AM 41.0 °F 36.4 °F 41.0 °F 100% 30.08 in 6.0 mi ESE 6.9 mph - N/A   Mostly Cloudy
3:20 AM 39.9 °F 36.7 °F 39.9 °F 100% 30.08 in 8.0 mi ESE 4.6 mph - N/A   Scattered Clouds
3:51 AM 41.0 °F 36.4 °F 41.0 °F 100% 30.08 in 5.0 mi East 6.9 mph - N/A   Mostly Cloudy
3:53 AM 41.0 °F 36.4 °F 41.0 °F 100% 30.08 in 3.0 mi East 6.9 mph - N/A   Mostly Cloudy
3:55 AM 41.0 °F 36.4 °F 41.0 °F 100% 30.08 in 1.8 mi East 6.9 mph - N/A   Mostly Cloudy
4:05 AM 42.1 °F 37.7 °F 42.1 °F 100% 30.08 in 0.5 mi East 6.9 mph - N/A Fog Fog
4:13 AM 41.0 °F 36.4 °F 41.0 °F 100% 30.08 in 2.0 mi East 6.9 mph - N/A   Overcast
4:53 AM 39.0 °F 34.0 °F 39.0 °F 100% 30.09 in 2.5 mi East 6.9 mph - N/A   Mostly Cloudy
5:10 AM 39.9 °F 34.5 °F 39.9 °F 100% 30.10 in 6.0 mi East 8.1 mph - N/A   Overcast
5:32 AM 41.0 °F 36.4 °F 41.0 °F 100% 30.10 in 2.5 mi East 6.9 mph - N/A   Overcast
5:48 AM 41.0 °F 37.1 °F 41.0 °F 100% 30.11 in 0.5 mi ENE 5.8 mph - N/A Fog Fog
5:51 AM 41.0 °F 38.0 °F 41.0 °F 100% 30.11 in 0.2 mi East 4.6 mph - N/A Fog Fog
5:53 AM 41.0 °F 38.0 °F 41.0 °F 100% 30.12 in 0.2 mi ENE 4.6 mph - N/A Fog Fog
6:05 AM 39.9 °F 35.8 °F 39.9 °F 100% 30.11 in 0.8 mi East 5.8 mph - N/A   Mist
6:12 AM 39.9 °F 35.8 °F 39.9 °F 100% 30.11 in 1.0 mi East 5.8 mph - N/A   Mist
6:20 AM 39.9 °F 36.7 °F 39.9 °F 100% 30.11 in 0.8 mi East 4.6 mph - N/A   Mist
6:30 AM 39.9 °F 36.7 °F 39.9 °F 100% 30.12 in 0.2 mi East 4.6 mph - N/A Fog Fog
6:37 AM 39.0 °F 34.8 °F 39.0 °F 100% 30.12 in 0.8 mi East 5.8 mph - N/A   Mist
6:39 AM 39.0 °F 34.8 °F 39.0 °F 100% 30.12 in 1.5 mi East 5.8 mph - N/A   Mostly Cloudy
6:41 AM 39.0 °F 35.7 °F 39.0 °F 100% 30.12 in 4.0 mi East 4.6 mph - N/A   Mostly Cloudy
6:50 AM 37.4 °F 33.8 °F 37.4 °F 100% 30.12 in 10.0 mi East 4.6 mph - N/A   Scattered Clouds
6:53 AM 37.9 °F 34.4 °F 37.9 °F 100% 30.13 in 10.0 mi East 4.6 mph - N/A   Partly Cloudy
7:27 AM 37.0 °F 33.3 °F 37.0 °F 100% 30.11 in 1.8 mi East 4.6 mph - N/A   Mostly Cloudy
7:37 AM 37.0 °F 33.3 °F 37.0 °F 100% 30.11 in 3.0 mi ENE 4.6 mph - N/A   Mostly Cloudy
7:48 AM 37.4 °F 33.8 °F 37.4 °F 100% 30.13 in 10.0 mi East 4.6 mph - N/A   Overcast
7:53 AM 37.9 °F 35.5 °F 37.9 °F 100% 30.14 in 10.0 mi East 3.5 mph - N/A   Overcast
8:45 AM 41.0 °F 38.0 °F 41.0 °F 100% 30.15 in 10.0 mi SE 4.6 mph - N/A   Scattered Clouds
8:53 AM 41.0 °F 38.0 °F 41.0 °F 100% 30.16 in 10.0 mi SE 4.6 mph - N/A   Partly Cloudy
9:53 AM 45.0 °F 41.8 °F 43.0 °F 93% 30.16 in 10.0 mi ESE 5.8 mph - N/A   Clear
10:21 AM 46.0 °F 43.1 °F 44.1 °F 93% 30.15 in 10.0 mi East 5.8 mph - N/A   Partly Cloudy
10:53 AM 46.9 °F - 46.0 °F 97% 30.15 in 10.0 mi SSE 8.1 mph - N/A   Partly Cloudy
11:37 AM 48.0 °F - 46.9 °F 96% 30.14 in 10.0 mi SSE 6.9 mph - N/A   Mostly Cloudy
11:53 AM 48.0 °F - 46.9 °F 96% 30.14 in 10.0 mi SE 5.8 mph - N/A   Mostly Cloudy
12:12 PM 52.0 °F - 48.0 °F 86% 30.13 in 10.0 mi SSE 5.8 mph - N/A   Partly Cloudy
12:53 PM 55.9 °F - 48.9 °F 77% 30.13 in 10.0 mi SE 5.8 mph - N/A   Clear
1:53 PM 62.1 °F - 50.0 °F 65% 30.09 in 10.0 mi ESE 8.1 mph - N/A   Clear
2:53 PM 63.0 °F - 46.9 °F 56% 30.08 in 10.0 mi SE 13.8 mph - N/A   Clear
3:53 PM 63.0 °F - 46.9 °F 56% 30.09 in 10.0 mi SE 10.4 mph - N/A   Clear
4:53 PM 63.0 °F - 46.0 °F 54% 30.09 in 10.0 mi ESE 10.4 mph - N/A   Clear
5:53 PM 59.0 °F - 46.0 °F 62% 30.07 in 10.0 mi East 9.2 mph - N/A   Clear
6:53 PM 53.1 °F - 45.0 °F 74% 30.08 in 10.0 mi East 3.5 mph - N/A   Clear
7:53 PM 52.0 °F - 46.9 °F 83% 30.10 in 10.0 mi ESE 6.9 mph - N/A   Clear
8:53 PM 51.1 °F - 46.9 °F 86% 30.08 in 10.0 mi ESE 8.1 mph - N/A   Clear
9:53 PM 52.0 °F - 48.0 °F 86% 30.07 in 10.0 mi ESE 9.2 mph - N/A   Clear
10:53 PM 54.0 °F - 48.0 °F 80% 30.08 in 10.0 mi East 12.7 mph 21.9 mph N/A   Clear
11:53 PM 54.0 °F - 48.0 °F 80% 30.07 in 10.0 mi ESE 17.3 mph 23.0 mph N/A   Clear